Location: ??????
(36.0418°N, 43.6351°E)
Time: 20:57:05
(UTC+00:00)

Cosmos 2315 Rocket - Pass Details

Date: 07 March 2021
Orbit: 967 x 1001 km, 82.9° (Epoch: 18 April)

Event Time Altitude Azimuth Distance (km) Brightness Sun altitude
Exits shadow 01:51:23 14° 206° (SSW) 2,415 5.7 -20.2°
Maximum altitude 01:56:35 53° 280° (W) 1,180 4.0 -19.2°
Drops below altitude 10° 02:02:38 10° 356° (N) 2,713 6.4 -18.0°
Sets 02:05:13 0° 1° (N) 3,664 7.1 -17.5°
